Location: Ladrillo (historical)
(32.8195°N, 117.2231°W)
Time: 22:59:26
(UTC+00:00)

Altair - Pass Details

Date: 26 February 2021
Orbit: 1501 x 1683 km, 47.2° (Epoch: 16 April)

Event Time Altitude Azimuth Distance (km) Brightness Sun altitude
Rises 03:06:25 0° 228° (SW) 4,622 10.7 -18.2°
Reaches altitude 10° 03:09:24 10° 228° (SW) 3,647 10.1 -18.9°
Maximum altitude 03:18:36 85° 141° (SE) 1,532 7.4 -20.8°
Enters shadow 03:25:17 22° 54° (NE) 2,877 8.5 -22.2°
